FW7044 Weather Reports


Display with metric or nautical units.
time (UTC)temp
F
wind
direction
speed
MPH
gust
MPH
rain 1hr
in
rain 24hr
in
rain mn
in
humidity
%
barometer
mb
20260906161502 93 342 1.0 2.0 0.00 0.01 0.01 77 1014.1
20260906161001 94 324 2.0 2.0 0.00 0.01 0.01 76 1014.1
20260906160454 94 291 0.0 0.0 0.00 0.01 0.01 75 1014.2
20260906155952 95 346 2.0 2.0 0.00 0.01 0.01 74 1014.2
20260906155451 95 186 2.0 2.0 0.00 0.01 0.01 73 1014.2
20260906154948 95 240 1.0 1.0 0.00 0.01 0.01 74 1014.5
20260906154443 94 353 1.0 1.0 0.00 0.01 0.01 74 1014.4
20260906153941 94 323 0.0 0.0 0.00 0.01 0.01 75 1014.5
20260906153440 95 316 2.0 2.0 0.00 0.01 0.01 75 1014.4
20260906152936 93 243 1.0 2.0 0.00 0.01 0.01 76 1014.5
20260906152435 93 292 0.0 1.0 0.00 0.01 0.01 78 1014.8
20260906151934 92 245 0.0 1.0 0.00 0.01 0.01 77 1014.7
20260906151430 93 328 1.0 1.0 0.00 0.01 0.01 78 1014.8
20260906150926 92 283 2.0 2.0 0.00 0.01 0.01 78 1014.7
20260906150421 91 298 1.0 1.0 0.00 0.01 0.01 83 1014.8
20260906145921 92 36 1.0 2.0 0.00 0.01 0.01 80 1014.7
20260906145420 91 319 1.0 1.0 0.00 0.01 0.01 81 1014.5
20260906144915 91 257 0.0 0.0 0.00 0.01 0.01 84 1014.8
20260906144409 91 337 0.0 1.0 0.00 0.01 0.01 81 1014.5
20260906143905 91 247 1.0 2.0 0.00 0.01 0.01 83 1014.7
20260906143400 90 22 1.0 2.0 0.00 0.01 0.01 83 1014.7
20260906142856 90 300 1.0 2.0 0.00 0.01 0.01 85 1014.4
20260906142355 89 333 0.0 0.0 0.00 0.01 0.01 85 1014.5
20260906141850 89 290 3.0 3.0 0.00 0.01 0.01 84 1014.4
20260906141344 90 273 1.0 1.0 0.00 0.01 0.01 86 1014.5
20260906140844 89 289 0.0 0.0 0.00 0.01 0.01 85 1014.4
20260906140339 89 296 0.0 0.0 0.00 0.01 0.01 87 1014.6
20260906135836 88 313 0.0 0.0 0.00 0.01 0.01 88 1014.4
20260906135332 88 315 0.0 1.0 0.00 0.01 0.01 88 1014.6
20260906134827 87 297 1.0 2.0 0.00 0.01 0.01 89 1014.4
20260906134322 88 274 0.0 1.0 0.00 0.01 0.01 90 1014.5
20260906133817 87 272 0.0 1.0 0.00 0.01 0.01 91 1014.7
20260906133313 86 307 0.0 1.0 0.00 0.01 0.01 91 1014.7
20260906132808 85 316 0.0 1.0 0.00 0.01 0.01 93 1014.6
20260906132306 85 286 0.0 1.0 0.00 0.01 0.01 94 1014.6
20260906131758 83 290 0.0 0.0 0.00 0.01 0.01 98 1014.7
20260906131254 82 301 0.0 0.0 0.00 0.01 0.01 99 1014.7
20260906130749 81 264 1.0 1.0 0.00 0.01 0.01 99 1014.7
20260906130244 81 280 1.0 1.0 0.00 0.01 0.01 99 1014.8
20260906125742 81 272 1.0 2.0 0.00 0.01 0.01 99 1015.0
20260906125241 80 293 0.0 0.0 0.00 0.01 0.01 99 1014.7
20260906124735 80 282 2.0 2.0 0.00 0.01 0.01 99 1014.8
20260906124232 80 262 0.0 1.0 0.00 0.01 0.01 99 1014.6
20260906123730 80 279 1.0 2.0 0.00 0.01 0.01 99 1014.8
20260906123225 79 285 2.0 2.0 0.00 0.01 0.01 99 1014.5
20260906122725 79 331 1.0 1.0 0.00 0.01 0.01 99 1014.7
20260906122220 79 302 0.0 0.0 0.00 0.01 0.01 99 1014.7
20260906121717 79 244 2.0 2.0 0.00 0.01 0.01 99 1014.5
20260906121213 79 280 0.0 0.0 0.00 0.01 0.01 99 1014.4
20260906120708 79 319 0.0 0.0 0.00 0.01 0.01 99 1014.3
20260906120205 79 281 0.0 0.0 0.00 0.01 0.01 99 1014.3
20260906115700 79 278 0.0 0.0 0.00 0.01 0.01 99 1014.4
20260906115155 80 285 0.0 0.0 0.00 0.01 0.01 99 1014.2
20260906114654 78 285 0.0 0.0 0.00 0.01 0.01 99 1014.4
20260906114149 78 285 0.0 0.0 0.00 0.01 0.01 99 1014.3
20260906113644 77 285 0.0 0.0 0.00 0.01 0.01 99 1014.2
20260906113144 77 284 0.0 0.0 0.00 0.01 0.01 99 1013.9
20260906112643 77 284 0.0 0.0 0.00 0.01 0.01 99 1013.9
20260906112140 77 284 0.0 0.0 0.00 0.01 0.01 99 1013.7
20260906111639 77 284 0.0 0.0 0.00 0.01 0.01 99 1013.9
20260906111134 77 284 0.0 0.0 0.00 0.01 0.01 99 1013.8
20260906110629 77 284 0.0 0.0 0.00 0.01 0.01 99 1013.7
20260906110124 77 284 0.0 0.0 0.00 0.01 0.01 99 1013.6
20260906105618 77 284 0.0 0.0 0.00 0.01 0.01 99 1013.4
20260906105115 77 284 0.0 0.0 0.00 0.01 0.01 99 1013.5
20260906104614 77 284 0.0 0.0 0.00 0.01 0.01 99 1013.4
20260906104108 77 285 0.0 0.0 0.00 0.01 0.01 99 1013.7
20260906103606 77 284 0.0 0.0 0.00 0.01 0.01 99 1013.2
20260906103102 77 287 0.0 0.0 0.00 0.01 0.01 99 1012.9
20260906102601 77 291 0.0 0.0 0.00 0.01 0.01 99 1012.8
20260906102056 77 280 0.0 0.0 0.00 0.01 0.01 99 1012.7
20260906101551 77 266 0.0 1.0 0.00 0.01 0.01 99 1013.0
20260906101045 77 279 0.0 0.0 0.00 0.01 0.01 99 1012.8
20260906100541 77 279 0.0 0.0 0.00 0.01 0.01 99 1012.8
20260906100036 77 279 0.0 0.0 0.00 0.01 0.01 99 1012.9
20260906095530 77 276 0.0 0.0 0.00 0.01 0.01 99 1012.5
20260906095026 77 244 1.0 1.0 0.00 0.01 0.01 99 1012.6
20260906094524 77 241 0.0 0.0 0.00 0.01 0.01 99 1012.5
20260906094021 77 276 0.0 0.0 0.00 0.01 0.01 99 1012.4
20260906093516 77 276 0.0 0.0 0.00 0.01 0.01 99 1012.2
20260906093016 77 276 0.0 0.0 0.00 0.01 0.01 99 1012.3
20260906092511 77 276 0.0 0.0 0.00 0.01 0.01 99 1012.2
20260906092006 77 276 0.0 0.0 0.00 0.01 0.01 99 1012.4
20260906091501 77 276 0.0 0.0 0.00 0.01 0.01 99 1012.0
20260906090958 77 276 0.0 0.0 0.00 0.01 0.01 99 1012.0
20260906090453 77 276 0.0 0.0 0.00 0.01 0.01 99 1012.1
20260906085953 77 276 0.0 0.0 0.00 0.01 0.01 99 1012.2
20260906085452 77 276 0.0 0.0 0.00 0.01 0.01 99 1012.0
20260906084951 77 276 0.0 0.0 0.00 0.01 0.01 99 1012.2
20260906084446 77 276 0.0 0.0 0.00 0.01 0.01 99 1012.1
20260906083945 77 276 0.0 0.0 0.00 0.01 0.01 99 1012.4
20260906083441 77 276 0.0 0.0 0.00 0.01 0.01 99 1012.3
20260906082940 77 276 0.0 0.0 0.00 0.01 0.01 99 1012.4
20260906082436 77 276 0.0 0.0 0.00 0.01 0.01 99 1012.2
20260906081931 77 276 0.0 0.0 0.00 0.01 0.01 99 1012.2
20260906081426 77 275 0.0 0.0 0.05 0.01 0.01 99 1012.3
20260906080923 77 275 0.0 0.0 0.05 0.01 0.01 99 1012.3
20260906080420 77 267 0.0 0.0 0.00 0.00 0.00 99 1012.4
20260906075919 77 266 0.0 0.0 0.00 0.00 0.00 99 1012.2
20260906075414 77 266 0.0 0.0 0.00 0.00 0.00 99 1012.3
20260906074909 77 265 0.0 0.0 0.00 0.00 0.00 99 1012.1
20260906074409 77 262 0.0 0.0 0.00 0.00 0.00 99 1012.0
20260906073908 77 261 0.0 0.0 0.00 0.00 0.00 99 1012.2
20260906073403 77 289 0.0 0.0 0.00 0.00 0.00 99 1012.3
20260906072859 77 291 0.0 0.0 0.00 0.00 0.00 99 1012.3
20260906072354 77 291 0.0 0.0 0.00 0.00 0.00 99 1012.5
20260906071850 77 291 0.0 0.0 0.00 0.00 0.00 99 1012.6
20260906071345 77 296 0.0 0.0 0.00 0.00 0.00 99 1012.6
20260906070841 77 296 0.0 0.0 0.00 0.00 0.00 99 1012.9
20260906070337 77 296 0.0 0.0 0.00 0.00 0.00 99 1012.8
20260906065832 77 296 0.0 0.0 0.00 0.00 0.00 99 1012.9
20260906065327 77 296 0.0 0.0 0.00 0.00 0.00 99 1013.0
20260906064822 77 275 0.0 0.0 0.00 0.00 0.00 99 1012.9
20260906064318 77 278 0.0 0.0 0.00 0.00 0.00 99 1013.0
20260906063813 77 281 0.0 0.0 0.00 0.00 0.00 99 1013.1
20260906063308 77 285 0.0 0.0 0.00 0.00 0.00 99 1013.4
20260906062803 77 285 0.0 0.0 0.00 0.00 0.00 99 1013.4
20260906062305 77 285 0.0 0.0 0.00 0.00 0.00 99 1013.5
20260906061758 77 287 0.0 0.0 0.00 0.00 0.00 99 1013.5
20260906061255 77 287 0.0 0.0 0.00 0.00 0.00 99 1013.6
20260906060749 77 287 0.0 0.0 0.00 0.00 0.00 99 1013.6
20260906060247 77 287 0.0 0.0 0.00 0.00 0.00 99 1013.9
20260906055742 77 287 0.0 0.0 0.00 0.00 0.00 99 1013.6
20260906055237 77 286 0.0 0.0 0.00 0.00 0.00 99 1013.6
20260906054733 77 286 0.0 0.0 0.00 0.00 0.00 99 1013.8
20260906054228 77 272 0.0 0.0 0.00 0.00 0.00 99 1013.8
20260906053725 77 253 0.0 0.0 0.00 0.00 0.00 99 1014.1
20260906053220 77 279 0.0 0.0 0.00 0.00 0.00 99 1014.2
20260906052715 77 269 0.0 0.0 0.00 0.00 0.00 99 1014.2
20260906052211 77 212 0.0 0.0 0.00 0.00 0.00 99 1014.2
20260906051708 77 269 0.0 0.0 0.00 0.00 0.00 99 1013.9
20260906051207 77 256 0.0 0.0 0.00 0.00 0.00 99 1014.1
20260906050703 77 209 2.0 2.0 0.00 0.00 0.00 99 1014.2
20260906050158 77 217 1.0 2.0 0.00 0.00 0.00 99 1014.1
20260906045656 77 238 1.0 1.0 0.00 0.00 0.00 99 1014.0
20260906045151 77 228 1.0 1.0 0.00 0.00 0.00 99 1014.2
20260906044647 77 234 0.0 0.0 0.00 0.00 0.00 99 1014.5
20260906044142 78 233 1.0 1.0 0.00 0.00 0.00 99 1014.4
20260906043639 78 127 2.0 3.0 0.00 0.00 0.00 99 1014.3
20260906043134 78 114 2.0 2.0 0.00 0.00 0.00 99 1014.2
20260906042633 78 235 0.0 1.0 0.00 0.00 0.00 99 1014.0
20260906042127 78 279 0.0 0.0 0.00 0.00 0.00 99 1014.1
20260906041623 78 254 0.0 0.0 0.00 0.00 0.00 99 1014.4
20260906041118 78 264 0.0 0.0 0.00 0.00 0.00 99 1014.5
20260906040614 78 267 0.0 0.0 0.00 0.00 0.00 99 1014.4
20260906040109 78 272 0.0 0.0 0.00 0.00 0.00 99 1014.4
20260906035604 78 285 0.0 0.0 0.00 0.06 0.06 99 1014.4
20260906035059 78 287 0.0 0.0 0.00 0.06 0.06 99 1014.3
20260906034554 78 301 0.0 0.0 0.00 0.06 0.06 99 1014.3
20260906034048 78 278 0.0 0.0 0.00 0.06 0.06 99 1014.0
20260906033544 77 204 0.0 1.0 0.00 0.06 0.06 99 1014.2
20260906033039 77 247 1.0 1.0 0.00 0.06 0.06 99 1014.2
20260906032536 78 266 0.0 0.0 0.00 0.06 0.06 99 1014.1
20260906032030 78 262 0.0 0.0 0.00 0.06 0.06 99 1014.1
20260906031526 77 254 0.0 0.0 0.00 0.06 0.06 99 1014.3
20260906031021 77 294 0.0 0.0 0.00 0.06 0.06 99 1014.2
20260906030520 77 299 0.0 0.0 0.00 0.06 0.06 99 1014.2
20260906030015 77 300 0.0 0.0 0.00 0.06 0.06 99 1014.0
20260906025514 78 299 0.0 0.0 0.00 0.06 0.06 99 1014.2
20260906025012 78 299 0.0 0.0 0.00 0.06 0.06 99 1014.3
20260906024508 77 303 0.0 0.0 0.00 0.06 0.06 99 1014.1
20260906024002 77 333 0.0 0.0 0.00 0.06 0.06 99 1014.1
20260906023458 77 340 0.0 0.0 0.00 0.06 0.06 99 1014.3
20260906022953 77 326 0.0 0.0 0.00 0.06 0.06 99 1014.3
20260906022448 77 325 0.0 0.0 0.00 0.06 0.06 99 1014.4
20260906021944 77 330 0.0 0.0 0.00 0.06 0.06 99 1014.4
20260906021443 77 281 0.0 0.0 0.00 0.06 0.06 99 1014.5
20260906020939 77 292 0.0 0.0 0.00 0.06 0.06 99 1014.5
20260906020433 77 284 0.0 0.0 0.00 0.06 0.06 99 1014.5
20260906015932 77 274 0.0 0.0 0.00 0.06 0.06 99 1014.6
20260906015433 77 237 0.0 1.0 0.00 0.06 0.06 99 1014.7
20260906014932 77 248 0.0 1.0 0.00 0.06 0.06 99 1014.6
20260906014432 78 222 1.0 1.0 0.00 0.06 0.06 99 1014.5
20260906013929 78 311 1.0 2.0 0.00 0.06 0.06 99 1014.7
20260906013424 78 131 2.0 3.0 0.00 0.06 0.06 99 1014.3
20260906012920 78 253 3.0 3.0 0.00 0.06 0.06 99 1014.3
20260906012420 78 177 3.0 3.0 0.00 0.06 0.06 99 1014.5
20260906011918 78 176 3.0 5.0 0.00 0.06 0.06 99 1014.5
20260906011414 78 173 1.0 1.0 0.00 0.06 0.06 99 1014.5
20260906010909 78 204 0.0 1.0 0.00 0.06 0.06 99 1014.4
20260906010405 78 155 1.0 1.0 0.00 0.06 0.06 99 1014.4
20260906005901 78 276 0.0 0.0 0.00 0.06 0.06 99 1014.3
20260906005400 78 58 2.0 2.0 0.00 0.06 0.06 99 1014.5
20260906004858 78 225 2.0 2.0 0.00 0.06 0.06 99 1014.5
20260906004353 78 182 3.0 5.0 0.07 0.06 0.06 99 1014.5
20260906003848 78 158 2.0 3.0 0.12 0.06 0.06 99 1014.6
20260906003344 78 203 3.0 5.0 0.12 0.05 0.05 99 1014.7
20260906002839 78 231 2.0 3.0 0.12 0.04 0.04 99 1014.5
20260906002338 78 150 0.0 0.0 0.05 0.03 0.03 98 1014.5
20260906001834 78 124 1.0 2.0 0.07 0.02 0.02 98 1014.7
20260906001329 78 218 1.0 2.0 0.07 0.02 0.02 97 1014.4
20260906000825 79 310 0.0 0.0 0.00 0.01 0.01 96 1014.4
20260906000319 79 296 0.0 0.0 0.05 0.01 0.01 94 1014.3
20260905235819 79 117 2.0 2.0 0.05 0.01 0.01 93 1014.3
20260905235314 80 190 1.0 1.0 0.00 0.00 0.00 91 1014.3
20260905234809 81 214 1.0 1.0 0.00 0.00 0.00 88 1014.2
20260905234304 81 278 0.0 0.0 0.00 0.00 0.00 86 1013.9
20260905233759 81 351 0.0 0.0 0.00 0.00 0.00 85 1014.3
20260905233254 82 314 0.0 1.0 0.00 0.00 0.00 84 1014.8
20260905232753 83 359 4.0 5.0 0.00 0.00 0.00 84 1015.4
20260905232249 84 325 1.0 2.0 0.00 0.00 0.00 83 1014.8
20260905231745 84 314 2.0 3.0 0.00 0.00 0.00 83 1015.0
20260905231240 84 351 5.0 7.0 0.00 0.00 0.00 83 1014.9
20260905230736 84 358 5.0 6.0 0.00 0.00 0.00 85 1014.6
20260905230234 84 353 3.0 5.0 0.00 0.00 0.00 86 1014.5
20260905225733 84 98 7.0 8.0 0.00 0.00 0.00 85 1013.5
20260905225229 84 65 2.0 5.0 0.00 0.00 0.00 84 1014.2
20260905224728 85 70 2.0 3.0 0.00 0.00 0.00 85 1014.0
20260905224223 85 161 3.0 5.0 0.00 0.00 0.00 84 1013.7
20260905223720 85 60 0.0 0.0 0.00 0.00 0.00 85 1013.6
20260905223216 85 105 5.0 6.0 0.00 0.00 0.00 85 1013.8
20260905222712 86 76 5.0 7.0 0.00 0.00 0.00 84 1013.7
20260905222211 87 93 2.0 3.0 0.00 0.00 0.00 81 1013.5
20260905221707 88 168 5.0 7.0 0.00 0.00 0.00 80 1013.5
20260905221204 88 288 1.0 2.0 0.00 0.00 0.00 79 1013.3
20260905220659 88 115 4.0 6.0 0.00 0.00 0.00 78 1012.7
20260905220155 89 78 3.0 5.0 0.00 0.00 0.00 78 1012.8
20260905215654 89 194 1.0 5.0 0.00 0.00 0.00 77 1012.4
20260905215150 90 91 6.0 7.0 0.00 0.00 0.00 76 1012.5
20260905214646 90 199 3.0 5.0 0.00 0.00 0.00 76 1012.6
20260905214141 89 173 3.0 5.0 0.00 0.00 0.00 74 1012.6
20260905213636 88 156 4.0 6.0 0.00 0.00 0.00 75 1013.1
20260905213132 87 332 0.0 0.0 0.00 0.00 0.00 77 1013.0
20260905212627 88 322 1.0 2.0 0.00 0.00 0.00 77 1012.9
20260905212126 87 119 2.0 2.0 0.00 0.00 0.00 77 1013.0
20260905211621 88 93 3.0 6.0 0.00 0.00 0.00 75 1012.9
20260905211116 87 306 1.0 2.0 0.00 0.00 0.00 80 1013.3
20260905210613 87 163 3.0 7.0 0.00 0.00 0.00 81 1013.3
20260905210108 87 82 5.0 9.0 0.00 0.00 0.00 79 1013.7
20260905205607 88 7 1.0 2.0 0.00 0.00 0.00 77 1013.9
20260905205106 91 91 6.0 8.0 0.00 0.00 0.00 78 1014.4
20260905204601 91 143 8.0 11.0 0.00 0.00 0.00 79 1013.5
20260905204056 91 155 1.0 1.0 0.00 0.00 0.00 80 1013.2
20260905203556 94 107 6.0 9.0 0.00 0.00 0.00 74 1013.3
20260905203051 96 127 3.0 5.0 0.00 0.00 0.00 67 1013.0
20260905202546 94 127 5.0 7.0 0.00 0.00 0.00 67 1013.1
20260905202042 95 159 3.0 3.0 0.00 0.00 0.00 67 1013.0
20260905201538 95 202 2.0 2.0 0.00 0.00 0.00 68 1013.1
20260905201037 94 169 2.0 2.0 0.00 0.00 0.00 68 1013.0
20260905200532 96 164 5.0 7.0 0.00 0.00 0.00 65 1013.0
20260905200032 97 211 3.0 3.0 0.00 0.00 0.00 61 1013.0
20260905195526 96 147 2.0 2.0 0.00 0.00 0.00 63 1012.9
20260905195021 95 224 1.0 1.0 0.00 0.00 0.00 65 1013.0
20260905194516 93 165 3.0 3.0 0.00 0.00 0.00 67 1013.2
20260905194015 94 225 5.0 6.0 0.00 0.00 0.00 70 1013.4
20260905193510 95 254 1.0 1.0 0.00 0.00 0.00 68 1013.7
20260905193005 93 211 1.0 2.0 0.00 0.00 0.00 74 1013.7
20260905192500 92 256 1.0 2.0 0.00 0.00 0.00 75 1013.5
20260905191956 94 334 1.0 1.0 0.00 0.00 0.00 72 1013.5
20260905191455 95 330 0.0 1.0 0.00 0.00 0.00 70 1013.6
20260905190955 97 284 3.0 3.0 0.00 0.00 0.00 66 1013.6
20260905190453 100 282 0.0 0.0 0.00 0.00 0.00 60 1013.6
20260905185951 102 274 2.0 2.0 0.00 0.00 0.00 59 1013.4
20260905185447 100 195 4.0 6.0 0.00 0.00 0.00 58 1013.5
20260905184945 100 203 3.0 6.0 0.00 0.00 0.00 61 1013.4
20260905184440 101 136 0.0 0.0 0.00 0.00 0.00 57 1013.6
20260905183939 101 173 1.0 1.0 0.00 0.00 0.00 57 1013.4
20260905183433 102 284 2.0 3.0 0.00 0.00 0.00 55 1013.4
20260905182929 102 234 0.0 1.0 0.00 0.00 0.00 57 1013.5
20260905182427 101 221 2.0 2.0 0.00 0.00 0.00 56 1013.5
20260905181923 101 243 2.0 2.0 0.00 0.00 0.00 57 1013.7
20260905181418 101 201 1.0 2.0 0.00 0.00 0.00 55 1013.6
20260905180917 100 262 2.0 2.0 0.00 0.00 0.00 58 1013.8
20260905180412 98 328 1.0 1.0 0.00 0.00 0.00 64 1013.9
20260905175907 99 251 3.0 3.0 0.00 0.00 0.00 59 1013.6
20260905175406 100 238 2.0 2.0 0.00 0.00 0.00 58 1013.9
20260905174901 98 308 1.0 1.0 0.00 0.00 0.00 60 1014.1
20260905174357 100 311 2.0 3.0 0.00 0.00 0.00 62 1014.0
20260905173852 97 224 1.0 1.0 0.00 0.00 0.00 65 1014.0
20260905173348 97 335 0.0 0.0 0.00 0.00 0.00 65 1014.3
20260905172843 98 28 1.0 2.0 0.00 0.00 0.00 65 1014.3
20260905172341 99 295 1.0 2.0 0.00 0.00 0.00 60 1014.4
20260905171838 98 268 1.0 2.0 0.00 0.00 0.00 66 1014.3
20260905171334 97 321 0.0 0.0 0.00 0.00 0.00 68 1014.2
20260905170830 97 286 1.0 2.0 0.00 0.00 0.00 67 1014.7
20260905170326 96 243 1.0 1.0 0.00 0.00 0.00 69 1014.6
20260905165825 98 298 2.0 2.0 0.00 0.00 0.00 66 1014.6
20260905165321 98 300 3.0 3.0 0.00 0.00 0.00 67 1014.5
20260905164820 98 294 1.0 1.0 0.00 0.00 0.00 68 1014.7
20260905164315 97 244 3.0 3.0 0.00 0.00 0.00 67 1014.7
20260905163811 98 200 2.0 2.0 0.00 0.00 0.00 67 1014.9
20260905163307 97 319 2.0 2.0 0.00 0.00 0.00 66 1014.9
20260905162803 96 227 3.0 3.0 0.00 0.00 0.00 68 1015.0
20260905162305 97 213 4.0 5.0 0.00 0.00 0.00 70 1015.2
20260905161757 97 234 3.0 3.0 0.00 0.00 0.00 66 1015.1